1282867230905,86.3286
1282867290905,86.0389
1282867350905,86.3041
1282867410905,86.5415
1282867470905,86.3627
1282867530905,86.3843
1282867590905,86.2871
1282867650905,86.2201
1282867710905,86.3677
1282867770905,86.4100
1282867830905,85.9908
1282867890905,86.6235
1282867950905,86.5668
1282868010905,86.1150
1282868070905,85.6942
1282868130905,86.3281
1282868190905,85.9710
1282868250905,85.9288
1282868310905,86.5632
1282868370905,86.4418
1282868430905,86.6440
1282868490905,86.7037
1282868550905,86.1578
1282868610905,86.4987
1282868670905,86.6788
1282868730905,86.5361
1282868790905,86.4596
1282868850905,85.8278
1282868910905,86.5144
1282868970905,86.5863
1282869030905,86.3886
1282869090905,86.4167
1282869150905,86.3607
1282869210905,86.1470
1282869270905,86.8190
1282869330905,86.4950
1282869390905,86.5194
1282869450905,86.6175
1282869510905,86.2265
1282869570905,86.8732
1282869630905,86.4877
1282869690905,86.3474
1282869750905,86.2381
1282869810905,86.2120
1282869870905,86.5220
1282869930905,86.2371
1282869990905,86.6016
1282870050905,86.3628
1282870110905,86.7481
1282870170905,86.4489
1282870230905,86.1880
1282870290905,86.6846
1282870350905,86.4871
1282870410905,87.1514
1282870470905,86.5175
1282870530905,86.2981
1282870590905,86.1618
1282870650905,86.9058
1282870710905,85.7964
1282870770905,86.8828
1282870830915,86.2490
1282870890915,86.2098
1282870950915,86.8466
1282871010915,86.5757
1282871070915,86.5482
1282871130915,86.9733
1282871190915,86.6174
1282871250915,86.5867
1282871310915,86.1944
1282871370915,86.5918
1282871430915,86.6864
1282871490915,86.5937
1282871550915,86.1506
1282871610915,86.7551
1282871670915,86.7539
1282871730915,86.6539
1282871790915,86.8192
1282871850915,86.8184
1282871910915,85.9045
1282871970915,86.4193
1282872030915,86.4185
1282872090915,86.2535
1282872150915,86.7581
1282872210915,86.4727
1282872270915,86.6276
1282872330915,87.1879
1282872390915,86.8441
1282872450915,87.0000
1282872510915,86.4258
1282872570915,86.5971
1282872630915,86.8091
1282872690915,86.3863
1282872750915,86.8806
1282872810915,86.7063
1282872870915,87.0812
1282872930915,86.9517
1282872990915,86.3835
1282873050915,86.4536
1282873110915,86.4352
1282873170915,86.6887
1282873230915,86.7619
1282873290915,86.3862
1282873350915,86.5760
1282873410915,87.0815
1282873470915,86.4546
1282873530915,86.5658
1282873590915,86.3012
1282873650915,86.7580
1282873710915,87.0752
1282873770915,86.7992
1282873830915,86.7792
1282873890915,86.9589
1282873950915,87.0685
1282874010915,86.7724
1282874070915,86.4974
1282874130915,87.0987
1282874190915,86.6724
1282874250915,86.6367
1282874310915,86.7168
1282874370915,86.7474
1282874430925,86.7655
1282874490925,86.8644
1282874550925,88.4230
1282874610925,87.3986
1282874670925,86.8397
1282874730925,86.9658
1282874790925,87.0361
1282874850925,87.0583
1282874910925,86.6880
1282874970925,87.1476
1282875030925,87.2868
1282875090925,86.9250
1282875150925,86.7650
1282875210925,86.8590
1282875270925,86.8851
1282875330925,87.0225
1282875390925,86.6087
1282875450925,86.9211
1282875510925,87.0230
1282875570925,87.0326
1282875630925,86.8854
1282875690925,86.5690
1282875750925,87.2029
1282875810925,86.9368
1282875870925,86.6675
1282875930925,87.0014
1282875990925,86.6036
1282876050925,86.6849
1282876110925,86.7609
1282876170925,87.2481
1282876230925,86.7716
1282876290925,86.7948
1282876350925,86.4229
1282876410925,87.0644
1282876470925,86.7092
1282876530925,86.8335
1282876590925,87.2723
1282876650925,86.7261
1282876710925,86.8196
1282876770925,86.6207
1282876830925,87.1009
1282876890925,87.1142
1282876950925,87.0303
1282877010925,86.3608
1282877070925,86.6769
1282877130925,86.6458
1282877190925,87.2078
1282877250925,87.0018
1282877310925,86.9289
1282877370925,86.9287
1282877430925,86.8457
1282877490925,86.9197
1282877550925,87.4926
1282877610925,86.7231
1282877670925,87.0312
1282877730925,86.5543
1282877790925,86.9478
1282877850925,87.3529
1282877910925,86.8691
1282877970925,87.0259
1282878030934,86.8549
1282878090934,86.9964
1282878150934,86.9845
1282878210934,86.8010
1282878270934,87.3538
1282878330934,86.9614
1282878390934,87.2127
1282878450934,86.8355
1282878510934,86.8496
1282878570934,87.7540
1282878630934,87.1788
1282878690934,87.4204
1282878750934,87.1087
1282878810934,87.3922
1282878870934,87.3585
1282878930934,87.3525
1282878990934,87.6291
1282879050934,86.9433
1282879110934,87.1618
1282879170934,87.0854
1282879230934,87.1893
1282879290934,87.1844
1282879350934,86.7202
1282879410934,86.9615
1282879470934,86.8100
1282879530934,87.9398
1282879590934,87.2317
1282879650934,87.0662
1282879710934,87.2589
1282879770934,87.6296
1282879830934,87.1185
1282879890934,86.8350
1282879950934,87.3241
1282880010934,87.1193
1282880070934,86.7692
1282880130934,87.1113
1282880190934,87.1230
1282880250934,87.2128
1282880310934,86.7206
1282880370934,87.0174
1282880430934,87.0422
1282880490934,87.1199
1282880550934,87.2529
1282880610934,87.4048
1282880670934,87.1602
1282880730934,87.2422
1282880790934,87.6876
1282880850934,87.5608
1282880910934,87.6627
1282880970934,86.9858
1282881030934,87.3833
1282881090934,87.3977
1282881150934,87.2702
1282881210934,87.5342
1282881270934,87.2121
1282881330934,87.3053
1282881390934,87.6041
1282881450934,87.7565
1282881510934,86.8915
1282881570934,87.0360
1282881630944,87.4967
1282881690944,87.0501
1282881750944,87.4274
1282881810944,87.1940
1282881870944,87.2905
1282881930944,87.2934
1282881990944,87.4048
1282882050944,87.0753
1282882110944,87.2143
1282882170944,87.8030
1282882230944,87.4148
1282882290944,86.9795
1282882350944,86.9302
1282882410944,87.6439
1282882470944,87.0105
1282882530944,87.1846
1282882590944,86.8588
1282882650944,87.3846
1282882710944,87.5522
1282882770944,87.1001
1282882830944,87.4369
1282882890944,87.4835
1282882950944,87.0850
1282883010944,86.9995
1282883070944,87.4896
1282883130944,86.7561
1282883190944,87.3997
1282883250944,87.4387
1282883310944,87.2953
1282883370944,87.0490
1282883430944,87.3121
1282883490944,87.5486
1282883550944,87.5667
1282883610944,87.3589
1282883670944,87.2477
1282883730944,86.9932
1282883790944,87.2767
1282883850944,86.8718
1282883910944,87.8170
1282883970944,87.1535
1282884030944,87.6892
1282884090944,87.4145
1282884150944,87.4679
1282884210944,86.8677
1282884270944,87.5047
1282884330944,87.8133
1282884390944,87.2735
1282884450944,87.4338
1282884510944,87.3519
1282884570944,87.1066
1282884630944,87.2628
1282884690944,87.4253
1282884750944,87.2208
1282884810944,87.7812
1282884870944,87.1957
1282884930944,87.4385
1282884990944,87.6151
1282885050944,86.9111
1282885110944,87.3292
1282885170944,87.3933
1282885230953,87.0928
1282885290953,87.0869
1282885350953,86.6173
1282885410953,87.0068
1282885470953,87.2313
1282885530953,87.0860
1282885590953,86.9193
1282885650953,86.8629
1282885710953,87.1794
1282885770953,86.9409
1282885830953,87.2112
1282885890953,87.2168
1282885950953,87.2116
1282886010953,87.2659
1282886070953,86.5362
1282886130953,87.6398
1282886190953,87.0756
1282886250953,86.6586
1282886310953,87.5695
1282886370953,87.6333
1282886430953,87.1646
1282886490953,87.1692
1282886550953,87.4402
1282886610953,87.1152
1282886670953,87.6103
1282886730953,86.8752
1282886790953,86.6241
1282886850953,87.4518
1282886910953,87.0098
1282886970953,87.9035
1282887030953,87.0391
1282887090953,87.3735
1282887150953,87.0968
1282887210953,86.9988
1282887270953,87.4131
1282887330953,87.7347
1282887390953,87.2299
1282887450953,87.1768
1282887510953,87.3499
1282887570953,87.2893
1282887630953,87.6960
1282887690953,87.3498
1282887750953,87.2477
1282887810953,87.1213
1282887870953,87.2497
1282887930953,87.4439
1282887990953,87.4021
1282888050953,87.2270
1282888110953,87.4191
1282888170953,87.4172
1282888230953,87.0888
1282888290953,87.2752
1282888350953,87.2825
1282888410953,87.4830
1282888470953,87.5333
1282888530953,87.5947
1282888590953,87.3297
1282888650953,87.2943
1282888710953,87.3762
1282888770953,87.1851
1282888830963,87.1058
1282888890963,87.2572
1282888950963,87.5374
1282889010963,87.5166
1282889070963,87.5294
1282889130963,87.7166
1282889190963,87.5881
1282889250963,87.3401
1282889310963,87.3500
1282889370963,87.1326
1282889430963,87.3051
1282889490963,87.3818
1282889550963,87.4117
1282889610963,87.4984
1282889670963,87.2315
1282889730963,87.0680
1282889790963,87.7623
1282889850963,87.4347
1282889910963,87.6637
1282889970963,87.1888
1282890030963,87.2654
1282890090963,87.2234
1282890150963,87.5422
1282890210963,87.0707
1282890270963,87.3174
1282890330963,87.1010
1282890390963,87.2346
1282890450963,86.7925
1282890510963,86.9452
1282890570963,86.9579
1282890630963,87.2621
1282890690963,87.1666
1282890750963,87.5148
1282890810963,87.3149
1282890870963,87.2046
1282890930963,87.1987
1282890990963,87.2295
1282891050963,86.6409
1282891110963,86.9013
1282891170963,87.4057
1282891230963,87.3111
1282891290963,86.9852
1282891350963,86.7422
1282891410963,86.9025
1282891470963,87.2215
1282891530963,86.9741
1282891590963,86.9054
1282891650963,87.0325
1282891710963,87.4153
1282891770963,86.8983
1282891830963,87.3045
1282891890963,87.0946
1282891950963,86.9369
1282892010963,86.6457
1282892070963,86.8898
1282892130963,87.1792
1282892190963,86.8710
1282892250963,87.1392
1282892310963,87.1985
1282892370963,87.1457
1282892430973,86.6623
1282892490973,86.7584
1282892550973,86.8031
1282892610973,87.2687
1282892670973,87.0438
1282892730973,86.9254
1282892790973,86.8500
1282892850973,86.8974
1282892910973,87.1976
1282892970973,87.0109
1282893030973,86.9893
1282893090973,86.7523
1282893150973,87.1147
1282893210973,87.1164
1282893270973,87.3473
1282893330973,87.0747
1282893390973,86.8453
1282893450973,86.6649
1282893510973,87.2155
1282893570973,87.5279
1282893630973,86.6820
1282893690973,86.6537
1282893750973,86.8281
1282893810973,86.8960
1282893870973,87.1537
1282893930973,87.0241
1282893990973,86.6774
1282894050973,87.1759
1282894110973,86.7808
1282894170973,87.1600
1282894230973,86.8072
1282894290973,87.3611
1282894350973,87.3357
1282894410973,87.2369
1282894470973,87.5364
1282894530973,87.1023
1282894590973,87.1157
1282894650973,87.0697
1282894710973,87.4457
1282894770973,86.6484
1282894830973,87.0562
1282894890973,86.9592
1282894950973,86.9759
1282895010973,87.2366
1282895070973,86.3586
1282895130973,86.6071
1282895190973,86.6928
1282895250973,87.4318
1282895310973,87.2041
1282895370973,87.1669
1282895430973,86.8255
1282895490973,86.4843
1282895550973,87.1238
1282895610973,87.4690
1282895670973,86.8736
1282895730973,86.9848
1282895790973,87.2277
1282895850973,87.2597
1282895910973,86.6167
1282895970973,87.2123
1282896030983,86.8872
1282896090983,86.9286
1282896150983,86.5950
1282896210983,86.9257
1282896270983,86.9467
1282896330983,86.7278
1282896390983,87.5199
1282896450983,87.2449
1282896510982,86.7528
1282896570982,86.8304
1282896630983,87.5815
1282896690983,86.6344
1282896750983,87.0996
1282896810983,87.5160
1282896870983,87.1254
1282896930983,86.8242
1282896990983,86.9495
1282897050983,87.3129
1282897110983,86.3542
1282897170983,86.9745
1282897230983,86.5817
1282897290983,86.7570
1282897350983,86.7729
1282897410983,86.7454
1282897470983,87.4773
1282897530983,87.1584
1282897590983,87.1082
1282897650983,86.4361
1282897710983,87.1657
1282897770983,86.9938
1282897830983,87.1819
1282897890982,86.5098
1282897950982,87.6080
1282898010983,86.8820
1282898070983,86.6822
1282898130983,86.9873
1282898190983,86.6820
1282898250983,87.2974
1282898310983,86.7754
1282898370983,86.8740
1282898430983,87.2306
1282898490983,86.7237
1282898550983,87.5919
1282898610983,86.9779
1282898670983,87.0089
1282898730983,86.9561
1282898790983,86.9132
1282898850983,87.0221
1282898910983,86.9474
1282898970983,87.0378
1282899030983,86.8461
1282899090983,87.3222
1282899150983,87.0705
1282899210982,87.2374
1282899270982,87.2119
1282899330983,87.5846
1282899390983,87.1837
1282899450983,87.0264
1282899510983,87.2724
1282899570983,87.5349
1282899630992,87.2120
1282899690992,86.9733
1282899750992,87.1630
1282899810992,87.1871
1282899870992,87.1187
1282899930993,86.6533
1282899990993,86.8196
1282900050993,86.6271
1282900110993,87.0904
1282900170993,86.8023
1282900230992,86.6666
1282900290992,87.1698
1282900890992,87.2850
1282900950992,87.2128
1282901010992,87.1538
1282901070992,87.0525
1282901130992,86.9465
1282901190992,87.0674
1282901250993,87.1345
1282901310993,87.1509
1282901370993,86.5758
1282901430993,86.9013
1282901490993,87.4672
1282901550992,86.9639
1282901610992,87.5289
1282901670992,86.8199
1282901730992,87.4669
1282901790992,87.4227
1282901850992,87.1596
1282901910992,87.2513
1282901970992,87.7282
1282902030992,86.8408
1282902090992,87.0973
1282902150992,87.3449
1282902210992,87.4343
1282902270992,87.4737
1282902330992,87.0588
1282902390992,87.5028
1282902450992,87.3679
1282902510992,87.4498
1282902570992,87.4303
1282902630993,86.9077
1282902690993,87.3407
1282902750993,87.0396
1282902810993,87.3277
1282902870993,87.5292
1282902930992,86.7875
1282902990992,87.2494
1282903050992,87.6586
1282903110992,87.2617
1282903170992,87.1455
1282903231003,87.1703
1282903291003,87.2530
1282903351003,87.1043
1282903411003,87.1060
1282903471003,86.9807
1282903531003,86.9602
1282903591003,86.7436
1282903651003,87.7015
1282903711003,87.1892
1282903771003,86.8326
1282903831003,87.1294
1282903891003,87.1733
1282903951003,87.1335
1282904011003,87.2831
1282904071003,86.7200
1282904131003,87.1245
1282904191003,86.8607
1282904251003,86.8723
1282904311003,87.1689
1282904371003,87.1427
1282904431003,87.1970
1282904491003,87.4511
1282904551003,86.8452
1282904611003,87.0320
1282904671003,87.3328
1282904731003,87.0174
1282904791003,87.5419
1282904851003,86.9637
1282904911003,87.4390
1282904971003,87.3562
1282905031003,87.1195
1282905091003,87.2028
1282905151003,87.1279
1282905211003,87.1812
1282905271003,87.0143
1282905331003,87.2478
1282905391003,86.9307
1282905451003,87.0217
1282905511003,87.4367
1282905571003,86.8188
1282905631003,87.0843
1282905691003,87.1625
1282905751003,87.0808
1282905811003,87.3606
1282905871003,87.2609
1282905931003,87.6153
1282905991003,86.9637
1282906051003,86.8626
1282906111003,86.9594
1282906171003,87.0059
1282906231003,87.0243
1282906291003,87.3155
1282906351003,87.4782
1282906411003,87.4455
1282906471003,87.4050
1282906531003,87.2395
1282906591003,87.1493
1282906651003,87.2699
1282906711003,86.6553
1282906771003,86.9596
1282906831013,87.3018
1282906891013,87.0079
1282906951013,87.5277
1282907011013,87.3266
1282907071013,87.1369
1282907131013,87.1157
1282907191013,87.0054
1282907251013,87.3235
1282907311013,86.9466
1282907371013,87.2113
1282907431013,87.6365
1282907491013,87.4957
1282907551013,87.5443
1282907611013,87.3944
1282907671013,87.0813
1282907731013,87.1255
1282907791013,87.1088
1282907851013,87.1267
1282907911013,87.2532
1282907971013,86.9564
1282908031013,87.4311
1282908091013,87.4530
1282908151013,87.3089
1282908211013,87.1993
1282908271013,87.3338
1282908331013,87.3544
1282908391013,87.3102
1282908451013,87.4044
1282908511013,87.3675
1282908571013,86.9885
1282908631013,86.9081
1282908691013,87.6047
1282908751013,87.6025
1282908811013,88.2394
1282908871013,87.7167
1282908931013,87.3783
1282908991013,87.5123
1282909051013,87.6335
1282909111013,87.7595
1282909171013,87.5471
1282909231013,88.2472
1282909291013,87.8574
1282909351013,87.3962
1282909411013,87.5236
1282909471013,87.4893
1282909531013,87.5206
1282909591013,87.4075
1282909651013,87.6070
1282909711013,87.4987
1282909771013,87.0757
1282909831013,87.2734
1282909891013,87.6562
1282909951013,88.0781
1282910011013,87.4777
1282910071013,87.8108
1282910131013,87.3222
1282910191013,87.7630
1282910251013,87.3363
1282910311013,88.0613
1282910371013,87.7351
1282910431023,87.6609
1282910491023,87.6805
1282910551023,87.7595
1282910611023,87.2601
1282910671023,87.8573
1282910731023,87.7803
1282910791023,88.3486
1282910851023,88.0975
1282910911023,87.8945
1282910971023,88.0370
1282911031023,87.9014
1282911091023,88.2538
1282911151023,87.6669
1282911211023,87.5655
1282911271023,88.2899
1282911331023,87.3903
1282911391023,88.5016
1282911451023,87.7592
1282911511023,87.9732
1282911571023,87.7925
1282911631023,88.0570
1282911691023,88.0567
1282911751023,88.1887
1282911811023,87.8502
1282911871023,87.7852
1282911931023,87.8771
1282911991023,87.7679
1282912051023,88.0097
1282912111023,87.7297
1282912171023,87.7458
1282912231023,87.8796
1282912291023,88.2002
1282912351023,87.8312
1282912411023,87.4220
1282912471023,87.4939
1282912531023,88.0862
1282912591023,87.6003
1282912651023,87.5008
1282912711023,88.2208
1282912771023,88.3352
1282912831023,88.3194
1282912891023,87.7585
1282912951023,87.9671
1282913011023,88.1956
1282913071023,87.8486
1282913131023,87.5973
1282913191023,88.2219
1282913251023,87.9138
1282913311023,88.0660
1282913371023,88.4556
1282913431023,87.5594
1282913491023,88.0578
1282913551023,88.2595
1282913611023,88.0414
1282913671023,87.9262
1282913731023,88.0319
1282913791023,88.3634
1282913851023,87.7920
1282913911023,88.3245
1282913971023,87.6298
1282914031033,87.7251
1282914091033,88.5263
1282914151033,88.1892
1282914211033,88.2037
1282914271033,88.0758
1282914331033,87.9270
1282914391033,88.2337
1282914451033,88.2920
1282914511033,88.0251
1282914571033,87.6161
1282914631033,88.0656
1282914691033,88.5124
1282914751033,87.8483
1282914811033,88.0976
1282914871033,88.0747
1282914931033,88.2805
1282914991033,88.3199
1282915051033,87.8492
1282915111033,88.1845
1282915171033,87.8129
1282915231033,88.6073
1282915291033,87.8965
1282915351033,87.9761
1282915411033,88.1094
1282915471033,88.2927
1282915531033,88.3138
1282915591033,87.7865
1282915651033,88.1318
1282915711033,87.7108
1282915771033,88.2430
1282915831033,87.9117
1282915891033,88.0794
1282915951033,87.9155
1282916011033,88.5075
1282916071033,87.5688
1282916131033,87.9951
1282916191033,88.1903
1282916251033,87.8943
1282916311033,88.2119
1282916371033,88.8494
1282916431033,87.7022
1282916491033,88.2300
1282916551033,88.1670
1282916611033,87.8279
1282916671033,88.0302
1282916731033,88.1965
1282916791033,88.1034
1282916851033,87.6903
1282916911033,88.0616
1282916971033,87.8361
1282917031033,87.7171
1282917091033,88.1515
1282917151033,88.6123
1282917211033,88.2143
1282917271033,88.0908
1282917331033,88.3873
1282917391033,88.7185
1282917451033,88.3307
1282917511033,88.3593
1282917571033,88.0259
1282917631044,88.2583
1282917691044,88.7794
1282917751044,88.0784
1282917811044,88.0520
1282917871044,88.3069
1282917931044,88.2120
1282917991044,88.0605
1282918051044,88.5096
1282918111044,88.4757
1282918171044,88.5587
1282918231044,88.1409
1282918291044,88.3042
1282918351044,88.5277
1282918411044,88.7306
1282918471044,88.2331
1282918531044,88.5231
1282918591044,87.9766
1282918651044,88.4184
1282918711044,88.2831
1282918771044,88.2734
1282918831044,88.4830
1282918891044,88.4702
1282918951044,88.0406
1282919011044,88.0615
1282919071044,88.5106
1282919131044,88.3959
1282919191044,88.7860
1282919251044,89.0340
1282919311044,88.1498
1282919371044,88.2292
1282919431044,88.9284
1282919491044,88.2253
1282919551044,88.6609
1282919611044,88.4276
1282919671044,88.8158
1282919731044,89.0198
1282919791044,88.3949
1282919851044,88.6847
1282919911044,88.7214
1282919971044,88.7847
1282920031044,88.7137
1282920091044,88.5178
1282920151044,89.0609
1282920211044,88.4232
1282920271044,88.1182
1282920331044,88.9261
1282920391044,88.6094
1282920451044,88.5434
1282920511044,88.5186
1282920571044,88.5529
1282920631044,88.4031
1282920691044,88.8849
1282920751044,88.3901
1282920811044,88.3670
1282920871044,89.1093
1282920931044,89.0618
1282920991044,88.7383
1282921051044,88.7239
1282921111044,88.8703
1282921171044,88.7935
1282921231055,88.5399
1282921291055,88.5900
1282921351055,88.6906
1282921411055,88.5426
1282921471055,88.7429
1282921531055,88.4975
1282921591055,89.0917
1282921651055,88.7770
1282921711055,88.9673
1282921771055,88.9459
1282921831055,88.3981
1282921891055,88.6361
1282921951055,89.0560
1282922011055,88.8689
1282922071055,88.9178
1282922131055,88.8376
1282922191055,89.0263
1282922251055,88.9444
1282922311055,89.0841
1282922371055,88.7271
1282922431055,89.0670
1282922491055,88.6266
1282922551055,88.9896
1282922611055,88.7381
1282922671055,89.3505
1282922731055,89.1386
1282922791055,88.6186
1282922851055,88.6931
1282922911055,88.6128
1282922971055,89.1792
1282923031055,88.7913
1282923091055,89.1151
1282923151055,88.9794
1282923211055,88.2147
1282923271055,88.8569
1282923331055,88.6128
1282923391055,88.4000
1282923451055,88.9227
1282923511055,89.0345
1282923571055,88.7548
1282923631055,89.0903
1282923691055,88.6655
1282923751055,88.5490
1282923811055,88.8946
1282923871055,88.5269
1282923931055,88.6668
1282923991055,88.9783
1282924051055,88.4783
1282924111055,88.6614
1282924171055,88.7293
1282924231055,88.7879
1282924291055,88.4895
1282924351055,88.7564
1282924411055,88.3658
1282924471055,88.1771
1282924531055,88.4760
1282924591055,88.7785
1282924651055,88.6428
1282924711055,88.6972
1282924771055,88.8933
1282924831066,88.8508
1282924891066,88.7097
1282924951066,88.5931
1282925011066,88.5869
1282925071066,88.8485
1282925131066,88.6404
1282925191066,88.5569
1282925251066,88.6321
1282925311066,89.1347
1282925371066,88.9764
1282925431066,88.6981
1282925491066,88.9174
1282925551065,88.3088
1282925611065,88.6613
1282925671065,88.6594
1282925731065,88.5892
1282925791065,89.2439
1282925851066,88.4426
1282925911066,89.1446
1282925971066,89.1645
1282926031066,88.8038
1282926091066,88.6738
1282926151066,89.0022
1282926211066,88.4172
1282926271066,88.8491
1282926331066,88.8820
1282926391066,88.7970
1282926451066,89.1478
1282926511066,89.2810
1282926571066,88.6254
1282926631066,88.8897
1282926691066,88.7299
1282926751066,89.3966
1282926811066,88.7117
1282926871066,88.6907
1282926931065,89.1726
1282926991065,89.1811
1282927051065,89.0067
1282927111065,89.3195
1282927171066,89.0395
1282927231066,89.3075
1282927291066,88.7511
1282927351066,89.2635
1282927411066,88.8407
1282927471066,89.5928
1282927531066,88.8139
1282927591066,89.2683
1282927651066,89.0924
1282927711066,89.4428
1282927771066,89.1138
1282927831066,89.1138
1282927891066,89.5104
1282927951066,89.0728
1282928011066,89.1844
1282928071066,88.8685
1282928131066,89.2430
1282928191066,88.8750
1282928251065,89.2346
1282928311065,89.4266
1282928371065,89.3478
1282928431077,88.8601
1282928491077,89.1743
1282928551077,88.8658
1282928611077,89.1264
1282928671077,89.3726
1282928731077,89.2297
1282928791077,89.2947
1282928851077,89.4152
1282928911077,89.3035
1282928971077,89.3421
1282929031077,89.1355
1282929091077,89.5453
1282929151077,88.7832
1282929211077,88.8504
1282929271077,89.0731
1282929331077,88.2950
1282929391077,89.1534
1282929451077,89.1759
1282929511077,88.8866
1282929571077,89.0957
1282929631077,89.1132
1282929691077,89.3266
1282929751077,89.3784
1282929811077,89.0536
1282929871077,89.1671
1282929931077,89.2881
1282929991077,89.2593
1282930051077,88.7379
1282930111077,89.0908
1282930171077,89.1271
1282930231077,88.8877
1282930291077,88.9953
1282930351077,89.0974
1282930411077,89.5407
1282930471077,89.3098
1282930531077,89.2813
1282930591077,88.7949
1282930651077,88.6131
1282930711077,89.4536
1282930771077,88.7831
1282930831077,88.9210
1282930891077,88.9018
1282930951077,89.3692
1282931011077,89.3337
1282931071077,89.1327
1282931131077,89.0431
1282931191077,89.3038
1282931251077,88.7183
1282931311077,88.9113
1282931371077,88.8495
1282931431077,88.5017
1282931491077,88.6974
1282931551077,89.1365
1282931611077,89.1894
1282931671077,88.8801
1282931731077,88.9684
1282931791077,89.1461
1282931851077,88.9567
1282931911077,89.1345
1282931971077,88.9657
1282932031075,89.2190
1282932091075,89.3011
1282932151075,88.7305
1282932211075,89.2569
1282932271075,89.6474
1282932331075,89.0288
1282932391075,89.2553
1282932451075,89.2692
1282932511075,88.6296
1282932571075,88.9134
1282932631075,88.9130
1282932691075,89.0685
1282932751075,89.2160
1282932811075,89.1013
1282932871075,89.2459
1282932931075,89.1458
1282932991075,88.6595
1282933051075,88.9479
1282933111075,89.3906